This demonstration page uses our WeatherBlox Daily Observations layout. Learn more.

Hourly Observations for August 22, 2016

Temp ( °F °C ) Dew Point ( °F °C ) Humidity (%) Winds ( mph kmh ) Pressure ( in mb ) Visibility ( mi km ) Precip ( " mm )
12:15 am 00:15 Clear 67 19.6 52 11 58 58 S 13 20 29.91 1013 10 16.09344 0 0
12:35 am 00:35 Clear 67 19.3 52 11 59 59 S 15 24 29.94 1014 10 16.09344 0 0
12:55 am 00:55 Clear 66 19 52 11 60 60 S 14 22 29.94 1014 10 16.09344 0 0
1:15 am 01:15 Clear 65 18.6 52 11 61 61 S 14 22 29.94 1014 10 16.09344 0 0
1:35 am 01:35 Clear 65 18.5 52 11 62 62 S 13 20 29.94 1014 10 16.09344 0 0
1:55 am 01:55 Clear 65 18.3 52 11 63 63 S 10 17 29.94 1014 10 16.09344 0 0
2:15 am 02:15 Clear 65 18.1 51 10.8 63 63 S 13 20 29.94 1014 10 16.09344 0 0
2:35 am 02:35 Clear 64 18 51 10.7 63 63 S 13 20 29.91 1013 10 16.09344 0 0
2:55 am 02:55 Clear 64 17.7 51 10.7 64 64 S 10 17 29.91 1013 10 16.09344 0 0
3:15 am 03:15 Clear 64 17.6 51 10.6 64 64 S 12 19 29.91 1013 10 16.09344 0 0
3:35 am 03:35 Clear 64 17.5 51 10.5 64 64 S 13 20 29.91 1013 10 16.09344 0 0
3:55 am 03:55 Clear 64 17.5 51 10.5 64 64 S 10 17 29.91 1013 10 16.09344 0 0
4:15 am 04:15 Clear 63 17.3 51 10.4 64 64 S 10 17 29.91 1013 10 16.09344 0 0
4:35 am 04:35 Clear 64 17.5 51 10.3 63 63 S 12 19 29.91 1013 10 16.09344 0 0
4:55 am 04:55 Clear 63 17.4 50 10.2 63 63 S 10 17 29.91 1013 10 16.09344 0 0
5:15 am 05:15 Clear 63 17.2 50 10.2 64 64 S 10 17 29.91 1013 10 16.09344 0 0
5:35 am 05:35 Clear 63 17 50 10.2 64 64 S 10 17 29.91 1013 10 16.09344 0 0
5:55 am 05:55 Clear 62 16.7 50 10.1 65 65 S 12 19 29.91 1013 10 16.09344 0 0
6:15 am 06:15 Clear 61 16.3 50 10.2 67 67 S 10 17 29.91 1013 10 16.09344 0 0
6:35 am 06:35 Clear 61 16.2 50 10.1 67 67 S 12 19 29.91 1013 10 16.09344 0 0
6:55 am 06:55 Clear 61 16.3 50 10 66 66 S 10 17 29.91 1013 10 16.09344 0 0
7:15 am 07:15 Sunny 62 16.5 50 10 66 66 S 9 15 29.91 1013 10 16.09344 0 0
7:35 am 07:35 Sunny 62 16.6 50 10 65 65 S 10 17 29.91 1013 10 16.09344 0 0
7:55 am 07:55 Sunny 63 17.2 50 10 63 63 S 13 20 29.91 1013 10 16.09344 0 0
8:15 am 08:15 Sunny 64 18 51 10.4 61 61 S 10 17 29.91 1013 10 16.09344 0 0
8:35 am 08:35 Sunny 66 18.9 51 10.8 60 60 S 14 22 29.91 1013 10 16.09344 0 0
8:55 am 08:55 Sunny 68 20 52 11.2 57 57 S 15 24 29.88 1012 10 16.09344 0 0
9:15 am 09:15 Sunny 70 20.9 53 11.6 55 55 S 14 22 29.88 1012 10 16.09344 0 0
9:35 am 09:35 Sunny 71 21.8 53 11.8 53 53 SSW 17 28 29.88 1012 10 16.09344 0 0
9:55 am 09:55 Sunny 73 22.5 54 12.1 52 52 S 15 24 29.88 1012 10 16.09344 0 0
10:15 am 10:15 Sunny 74 23.1 55 12.6 52 52 S 16 26 29.85 1011 10 16.09344 0 0
10:35 am 10:35 Sunny 74 23.6 56 13.1 52 52 S 15 24 29.85 1011 10 16.09344 0 0
10:55 am 10:55 Sunny 76 24.7 56 13.4 49 49 S 15 24 29.85 1011 10 16.09344 0 0
11:15 am 11:15 Sunny 77 25.2 57 13.7 49 49 S 15 24 29.85 1011 10 16.09344 0 0
11:35 am 11:35 Sunny 80 26.4 57 13.9 46 46 S 17 28 29.85 1011 10 16.09344 0 0
11:55 am 11:55 Sunny 81 27 58 14.4 46 46 S 15 24 29.83 1010 10 16.09344 0 0
12:15 pm 12:15 Sunny 81 27.3 58 14.4 45 45 S 17 28 29.83 1010 10 16.09344 0 0
12:35 pm 12:35 Sunny 82 28 58 14.6 44 44 S 20 31 29.8 1009 10 16.09344 0 0
12:55 pm 12:55 Sunny 84 28.7 59 15 43 43 S 21 33 29.8 1009 10 16.09344 0 0
1:15 pm 13:15 Sunny 84 29.1 58 14.7 41 41 S 18 30 29.8 1009 10 16.09344 0 0
1:35 pm 13:35 Sunny 85 29.7 59 14.9 41 41 S 18 30 29.8 1009 10 16.09344 0 0
1:55 pm 13:55 Sunny 86 30.1 58 14.6 39 39 S 20 31 29.77 1008 10 16.09344 0 0
2:15 pm 14:15 Sunny 87 30.6 58 14.6 38 38 S 20 31 29.77 1008 10 16.09344 0 0
2:35 pm 14:35 Sunny 86 30 58 14.4 39 39 S 17 28 29.74 1007 10 16.09344 0 0
2:55 pm 14:55 Sunny 88 30.9 58 14.6 37 37 S 21 33 29.74 1007 10 16.09344 0 0
3:15 pm 15:15 Sunny 87 30.8 58 14.2 36 36 S 23 37 29.74 1007 10 16.09344 0 0
3:35 pm 15:35 Sunny 87 30.6 57 14.1 37 37 S 22 35 29.74 1007 10 16.09344 0 0
3:55 pm 15:55 Sunny 88 31 57 13.7 35 35 S 20 31 29.74 1007 10 16.09344 0 0
4:15 pm 16:15 Sunny 88 31 57 13.9 35 35 S 22 35 29.74 1007 10 16.09344 0 0
4:35 pm 16:35 Sunny 87 30.3 56 13.2 35 35 S 23 37 29.74 1007 10 16.09344 0 0
4:55 pm 16:55 Sunny 85 29.2 56 13.5 38 38 S 13 20 29.77 1008 10 16.09344 0 0
5:15 pm 17:15 Sunny 83 28.5 58 14.6 43 43 S 15 24 29.77 1008 10 16.09344 0 0
5:35 pm 17:35 Sunny 83 28.6 57 13.9 41 41 S 12 19 29.77 1008 10 16.09344 0 0
5:55 pm 17:55 Sunny 82 28 57 14 42 42 S 14 22 29.77 1008 10 16.09344 0 0
6:15 pm 18:15 Sunny 82 28 58 14.7 44 44 SSE 14 22 29.77 1008 10 16.09344 0 0
6:35 pm 18:35 Sunny 82 28 57 14.1 43 43 S 16 26 29.77 1008 10 16.09344 0 0
6:55 pm 18:55 Sunny 81 27.4 57 14.1 44 44 SSE 16 26 29.74 1007 10 16.09344 0 0
7:15 pm 19:15 Sunny 80 26.9 58 14.3 46 46 SSE 12 19 29.74 1007 10 16.09344 0 0
7:35 pm 19:35 Sunny 79 26.3 58 14.4 48 48 SSE 14 22 29.77 1008 10 16.09344 0 0
7:55 pm 19:55 Sunny 79 25.9 58 14.2 49 49 SSE 14 22 29.77 1008 10 16.09344 0 0
8:15 pm 20:15 Sunny 78 25.5 57 14.1 49 49 SSE 12 19 29.8 1009 10 16.09344 0 0
8:35 pm 20:35 Clear 77 24.9 57 14 51 51 SSE 10 17 29.8 1009 10 16.09344 0 0
8:55 pm 20:55 Clear 75 24.1 57 14.1 54 54 SSE 9 15 29.8 1009 10 16.09344 0 0
9:15 pm 21:15 Clear 74 23.6 58 14.3 56 56 SSE 12 19 29.8 1009 10 16.09344 0 0
9:35 pm 21:35 Clear 74 23.6 57 13.7 54 54 SSE 12 19 29.83 1010 10 16.09344 0 0
9:55 pm 21:55 Clear 74 23.4 56 13.5 54 54 SSE 13 20 29.83 1010 10 16.09344 0 0
10:15 pm 22:15 Clear 74 23.2 55 12.8 52 52 SSE 14 22 29.83 1010 10 16.09344 0 0
10:35 pm 22:35 Clear 73 23 55 12.9 53 53 SSE 14 22 29.83 1010 10 16.09344 0 0
10:55 pm 22:55 Clear 73 22.7 55 12.6 53 53 SSE 14 22 29.83 1010 10 16.09344 0 0
11:15 pm 23:15 Clear 72 22.1 55 12.8 56 56 SSE 13 20 29.85 1011 10 16.09344 0 0
11:35 pm 23:35 Clear 71 21.8 55 13 57 57 SSE 13 20 29.85 1011 10 16.09344 0 0
11:55 pm 23:55 Clear 71 21.6 55 13 58 58 SSE 14 22 29.85 1011 10 16.09344 0 0

Powered by AerisWeather